Time,TemperatureF,DewpointF,PressureIn,WindDirection,WindDirectionDegrees,WindSpeedMPH,WindSpeedGustMPH,Humidity,HourlyPrecipIn,Conditions,Clouds,dailyrainin,SoftwareType,DateUTC
2013-09-28 00:02:00,57.0,15.0,-100.00,WNW,300,7.0,15.0,19,0.00,,,0.00,,2013-09-28 00:02:00,
2013-09-28 00:12:00,57.0,15.0,-100.00,WNW,300,7.0,15.0,19,0.00,,,0.00,,2013-09-28 00:12:00,
2013-09-28 00:42:00,56.0,16.0,-100.00,NNW,346,6.0,12.0,20,0.00,,,0.00,,2013-09-28 00:42:00,
2013-09-28 00:52:00,56.0,16.0,-100.00,NNW,346,6.0,12.0,20,0.00,,,0.00,,2013-09-28 00:52:00,
2013-09-28 01:01:00,56.0,16.0,-100.00,NNW,346,6.0,12.0,20,0.00,,,0.00,,2013-09-28 01:01:00,
2013-09-28 01:12:00,56.0,16.0,-100.00,NNW,346,6.0,12.0,20,0.00,,,0.00,,2013-09-28 01:12:00,
2013-09-28 01:42:00,50.0,16.0,-100.00,NNW,336,4.0,13.0,25,0.00,,,0.00,,2013-09-28 01:42:00,
2013-09-28 01:52:00,50.0,16.0,-100.00,NNW,336,4.0,13.0,25,0.00,,,0.00,,2013-09-28 01:52:00,
2013-09-28 02:03:00,50.0,16.0,-100.00,NNW,336,4.0,13.0,25,0.00,,,0.00,,2013-09-28 02:03:00,
2013-09-28 02:12:00,50.0,16.0,-100.00,NNW,336,4.0,13.0,25,0.00,,,0.00,,2013-09-28 02:12:00,
2013-09-28 02:53:00,39.0,17.0,-100.00,ESE,111,2.0,5.0,40,0.00,,,0.00,,2013-09-28 02:53:00,
2013-09-28 03:03:00,39.0,17.0,-100.00,ESE,111,2.0,5.0,40,0.00,,,0.00,,2013-09-28 03:03:00,
2013-09-28 03:12:00,39.0,17.0,-100.00,ESE,111,2.0,5.0,40,0.00,,,0.00,,2013-09-28 03:12:00,
2013-09-28 03:45:00,35.0,17.0,-100.00,SSE,151,2.0,4.0,47,0.00,,,0.00,,2013-09-28 03:45:00,
2013-09-28 03:55:00,35.0,17.0,-100.00,SSE,151,2.0,4.0,47,0.00,,,0.00,,2013-09-28 03:55:00,
2013-09-28 04:04:00,35.0,17.0,-100.00,SSE,151,2.0,4.0,47,0.00,,,0.00,,2013-09-28 04:04:00,
2013-09-28 04:13:00,35.0,17.0,-100.00,SSE,151,2.0,4.0,47,0.00,,,0.00,,2013-09-28 04:13:00,
2013-09-28 04:43:00,35.0,17.0,-100.00,ESE,110,3.0,7.0,47,0.00,,,0.00,,2013-09-28 04:43:00,
2013-09-28 04:54:00,35.0,17.0,-100.00,ESE,110,3.0,7.0,47,0.00,,,0.00,,2013-09-28 04:54:00,
2013-09-28 05:03:00,35.0,17.0,-100.00,ESE,110,3.0,7.0,47,0.00,,,0.00,,2013-09-28 05:03:00,
2013-09-28 05:12:00,35.0,17.0,-100.00,ESE,110,3.0,7.0,47,0.00,,,0.00,,2013-09-28 05:12:00,
2013-09-28 05:43:00,34.0,19.0,-100.00,ESE,110,5.0,7.0,53,0.00,,,0.00,,2013-09-28 05:43:00,
2013-09-28 05:53:00,34.0,19.0,-100.00,ESE,110,5.0,7.0,53,0.00,,,0.00,,2013-09-28 05:53:00,
2013-09-28 06:02:00,34.0,19.0,-100.00,ESE,110,5.0,7.0,53,0.00,,,0.00,,2013-09-28 06:02:00,
2013-09-28 06:12:00,34.0,19.0,-100.00,ESE,110,5.0,7.0,53,0.00,,,0.00,,2013-09-28 06:12:00,
2013-09-28 06:42:00,33.0,19.0,-100.00,ESE,119,4.0,7.0,57,0.00,,,0.00,,2013-09-28 06:42:00,
2013-09-28 06:52:00,33.0,19.0,-100.00,ESE,119,4.0,7.0,57,0.00,,,0.00,,2013-09-28 06:52:00,
2013-09-28 07:02:00,33.0,19.0,-100.00,ESE,119,4.0,7.0,57,0.00,,,0.00,,2013-09-28 07:02:00,
2013-09-28 07:12:00,33.0,19.0,-100.00,ESE,119,4.0,7.0,57,0.00,,,0.00,,2013-09-28 07:12:00,
2013-09-28 07:42:00,30.0,20.0,-100.00,ESE,110,2.0,6.0,65,0.00,,,0.00,,2013-09-28 07:42:00,
2013-09-28 07:52:00,30.0,20.0,-100.00,ESE,110,2.0,6.0,65,0.00,,,0.00,,2013-09-28 07:52:00,
2013-09-28 08:02:00,30.0,20.0,-100.00,ESE,110,2.0,6.0,65,0.00,,,0.00,,2013-09-28 08:02:00,
2013-09-28 08:13:00,30.0,20.0,-100.00,ESE,110,2.0,6.0,65,0.00,,,0.00,,2013-09-28 08:13:00,
2013-09-28 08:43:00,27.0,19.0,-100.00,ENE,63,0.0,4.0,71,0.00,,,0.00,,2013-09-28 08:43:00,
2013-09-28 08:53:00,27.0,19.0,-100.00,ENE,63,0.0,4.0,71,0.00,,,0.00,,2013-09-28 08:53:00,
2013-09-28 09:01:00,27.0,19.0,-100.00,ENE,63,0.0,4.0,71,0.00,,,0.00,,2013-09-28 09:01:00,
2013-09-28 09:11:00,27.0,19.0,-100.00,ENE,63,0.0,4.0,71,0.00,,,0.00,,2013-09-28 09:11:00,
2013-09-28 09:43:00,25.0,18.0,-100.00,NW,316,0.0,1.0,74,0.00,,,0.00,,2013-09-28 09:43:00,
2013-09-28 09:54:00,25.0,18.0,-100.00,NW,316,0.0,1.0,74,0.00,,,0.00,,2013-09-28 09:54:00,
2013-09-28 10:03:00,25.0,18.0,-100.00,NW,316,0.0,1.0,74,0.00,,,0.00,,2013-09-28 10:03:00,
2013-09-28 10:12:00,25.0,18.0,-100.00,NW,316,0.0,1.0,74,0.00,,,0.00,,2013-09-28 10:12:00,
2013-09-28 10:43:00,25.0,19.0,-100.00,NW,306,0.0,1.0,78,0.00,,,0.00,,2013-09-28 10:43:00,
2013-09-28 10:52:00,25.0,19.0,-100.00,NW,306,0.0,1.0,78,0.00,,,0.00,,2013-09-28 10:52:00,
2013-09-28 11:03:00,25.0,19.0,-100.00,NW,306,0.0,1.0,78,0.00,,,0.00,,2013-09-28 11:03:00,
2013-09-28 11:12:00,25.0,19.0,-100.00,NW,306,0.0,1.0,78,0.00,,,0.00,,2013-09-28 11:12:00,
2013-09-28 11:43:00,24.0,18.0,-100.00,West,274,2.0,4.0,77,0.00,,,0.00,,2013-09-28 11:43:00,
2013-09-28 11:52:00,24.0,18.0,-100.00,West,274,2.0,4.0,77,0.00,,,0.00,,2013-09-28 11:52:00,
2013-09-28 12:01:00,24.0,18.0,-100.00,West,274,2.0,4.0,77,0.00,,,0.00,,2013-09-28 12:01:00,
2013-09-28 12:12:00,24.0,18.0,-100.00,West,274,2.0,4.0,77,0.00,,,0.00,,2013-09-28 12:12:00,
2013-09-28 12:42:00,26.0,17.0,-100.00,WSW,239,0.0,6.0,69,0.00,,,0.00,,2013-09-28 12:42:00,
2013-09-28 12:52:00,26.0,17.0,-100.00,WSW,239,0.0,6.0,69,0.00,,,0.00,,2013-09-28 12:52:00,
2013-09-28 13:02:00,26.0,17.0,-100.00,WSW,239,0.0,6.0,69,0.00,,,0.00,,2013-09-28 13:02:00,
2013-09-28 13:12:00,26.0,17.0,-100.00,WSW,239,0.0,6.0,69,0.00,,,0.00,,2013-09-28 13:12:00,
2013-09-28 13:42:00,25.0,18.0,-100.00,NNW,334,2.0,5.0,74,0.00,,,-99.99,,2013-09-28 13:42:00,
2013-09-28 13:52:00,25.0,18.0,-100.00,NNW,334,2.0,5.0,74,0.00,,,-99.99,,2013-09-28 13:52:00,
2013-09-28 14:02:00,25.0,18.0,-100.00,NNW,334,2.0,5.0,74,0.00,,,-99.99,,2013-09-28 14:02:00,
2013-09-28 14:11:00,25.0,18.0,-100.00,NNW,334,2.0,5.0,74,0.00,,,-99.99,,2013-09-28 14:11:00,
2013-09-28 16:43:00,54.0,22.0,-100.00,East,100,8.0,15.0,28,0.00,,,0.00,,2013-09-28 16:43:00,
2013-09-28 16:54:00,54.0,22.0,-100.00,East,100,8.0,15.0,28,0.00,,,0.00,,2013-09-28 16:54:00,
2013-09-28 17:03:00,54.0,22.0,-100.00,East,100,8.0,15.0,28,0.00,,,0.00,,2013-09-28 17:03:00,
2013-09-28 17:13:00,54.0,22.0,-100.00,East,100,8.0,15.0,28,0.00,,,0.00,,2013-09-28 17:13:00,
2013-09-28 17:43:00,58.0,19.0,-100.00,East,92,6.0,13.0,22,0.00,,,0.00,,2013-09-28 17:43:00,
2013-09-28 17:52:00,58.0,19.0,-100.00,East,92,6.0,13.0,22,0.00,,,0.00,,2013-09-28 17:52:00,
2013-09-28 18:02:00,58.0,19.0,-100.00,East,92,6.0,13.0,22,0.00,,,0.00,,2013-09-28 18:02:00,
2013-09-28 18:12:00,58.0,19.0,-100.00,East,92,6.0,13.0,22,0.00,,,0.00,,2013-09-28 18:12:00,
2013-09-28 18:52:00,63.0,20.0,-100.00,SW,236,3.0,11.0,19,0.00,,,0.00,,2013-09-28 18:52:00,
2013-09-28 19:02:00,63.0,20.0,-100.00,SW,236,3.0,11.0,19,0.00,,,0.00,,2013-09-28 19:02:00,
2013-09-28 19:11:00,63.0,20.0,-100.00,SW,236,3.0,11.0,19,0.00,,,0.00,,2013-09-28 19:11:00,
2013-09-28 19:42:00,65.0,20.0,-100.00,West,278,4.0,12.0,18,0.00,,,0.00,,2013-09-28 19:42:00,
2013-09-28 19:52:00,65.0,20.0,-100.00,West,278,4.0,12.0,18,0.00,,,0.00,,2013-09-28 19:52:00,
2013-09-28 20:02:00,65.0,20.0,-100.00,West,278,4.0,12.0,18,0.00,,,0.00,,2013-09-28 20:02:00,
2013-09-28 20:12:00,65.0,20.0,-100.00,West,278,4.0,12.0,18,0.00,,,0.00,,2013-09-28 20:12:00,
2013-09-28 20:43:00,67.0,22.0,-100.00,NW,311,5.0,12.0,18,0.00,,,0.00,,2013-09-28 20:43:00,
2013-09-28 20:52:00,67.0,22.0,-100.00,NW,311,5.0,12.0,18,0.00,,,0.00,,2013-09-28 20:52:00,
2013-09-28 21:02:00,67.0,22.0,-100.00,NW,311,5.0,12.0,18,0.00,,,0.00,,2013-09-28 21:02:00,
2013-09-28 21:12:00,67.0,22.0,-100.00,NW,311,5.0,12.0,18,0.00,,,0.00,,2013-09-28 21:12:00,
2013-09-28 21:44:00,67.0,25.0,-100.00,WNW,299,7.0,17.0,20,0.00,,,0.00,,2013-09-28 21:44:00,
2013-09-28 21:55:00,67.0,25.0,-100.00,WNW,299,7.0,17.0,20,0.00,,,0.00,,2013-09-28 21:55:00,
2013-09-28 22:04:00,67.0,25.0,-100.00,WNW,299,7.0,17.0,20,0.00,,,0.00,,2013-09-28 22:04:00,
2013-09-28 22:13:00,67.0,25.0,-100.00,WNW,299,7.0,17.0,20,0.00,,,0.00,,2013-09-28 22:13:00,
2013-09-28 22:43:00,68.0,25.0,-100.00,WNW,294,6.0,14.0,20,0.00,,,0.00,,2013-09-28 22:43:00,
2013-09-28 22:54:00,68.0,25.0,-100.00,WNW,294,6.0,14.0,20,0.00,,,0.00,,2013-09-28 22:54:00,
2013-09-28 23:03:00,68.0,25.0,-100.00,WNW,294,6.0,14.0,20,0.00,,,0.00,,2013-09-28 23:03:00,
2013-09-28 23:12:00,68.0,25.0,-100.00,WNW,294,6.0,14.0,20,0.00,,,0.00,,2013-09-28 23:12:00,
2013-09-28 23:43:00,68.0,25.0,-100.00,SW,227,4.0,12.0,20,0.00,,,0.00,,2013-09-28 23:43:00,
2013-09-28 23:52:00,68.0,25.0,-100.00,SW,227,4.0,12.0,20,0.00,,,0.00,,2013-09-28 23:52:00,